Weather observations for the past three days for
Rantoul National Aviation Center Airport
Imperial (Metric)
Date Time (cdt) Wind (mph) Vis. (mi.) Weather Sky Cond. Temperature (ºF) Relative Humidity Wind Chill (°F) Heat Index (°F) Pressure Precipitation (in)
Air Dwpt 6 hour altimeter (in) sea level (mb) 1 hr 3 hr 6 hr
Max. Min.
14 21:15 S 10 10.00 Fair CLR 81 75.6 84% 87 29.91 0.0
14 20:55 S 7 10.00 Fair CLR 81.1 75.2 82% 87 29.91 0.0
14 20:35 S 7 10.00 Fair CLR 81 75.4 83% 87 29.91 0.0
14 20:15 S 7 10.00 Fair CLR 82.4 75 78% 89 29.93 0.0
14 19:55 S 9 10.00 Fair CLR 83.3 75.6 78% 91 29.93 0.0
14 19:35 S 7 10.00 Fair CLR 84.4 75.9 76% 93 29.94 0.0
14 19:15 S 7 10.00 Fair CLR 85.1 76.3 75% 95 29.95 0.0
14 18:55 S 8 G 16 10.00 Fair CLR 85.6 75.6 88 83.5 72% 95 29.95 0.0
14 18:35 S 7 10.00 Fair CLR 85.6 76.6 75% 96 29.95 0.0
14 18:15 S 10 10.00 Fair CLR 86.2 75.4 70% 96 29.94 0.0
14 17:55 SW 12 G 18 10.00 Fair CLR 86.5 74.3 67% 95 29.94 0.0
14 17:35 SW 7 G 17 10.00 Fair CLR 86.9 75.6 69% 97 29.95 0.0
14 17:15 SW 16 10.00 Fair CLR 86.7 74.7 67% 96 29.95 0.0
14 16:55 SW 17 10.00 Partly Cloudy SCT033 86.9 75.6 69% 97 29.96 0.0
14 16:35 SW 15 G 22 10.00 Fair CLR 86.7 74.7 67% 96 29.96 0.0
14 16:15 SW 13 G 21 10.00 Partly Cloudy SCT032 87.1 74.5 66% 96 29.96 0.0
14 15:55 SW 13 G 18 10.00 Fair CLR 87.4 76.1 69% 98 29.96 0.0
14 15:35 S 9 10.00 Fair CLR 87.8 76.6 70% 99 29.97 0.0
14 15:15 SW 12 10.00 Fair CLR 86.7 75.4 69% 96 29.98 0.0
14 14:55 S 13 G 18 10.00 Fair CLR 87.1 74.5 66% 96 29.98 0.0
14 14:35 SW 9 10.00 Fair CLR 87.4 74.7 66% 97 29.99 0.0
14 14:15 SW 10 G 16 10.00 Fair CLR 84.9 72.7 67% 91 29.99 0.0
14 13:55 S 9 10.00 Fair CLR 85.8 73.2 66% 93 29.99 0.0
14 13:35 S 13 10.00 Fair CLR 85.8 72.5 65% 92 29.99 0.0
14 13:15 S 9 10.00 Fair CLR 84.4 70.7 64% 89 29.99 0.0
14 12:55 S 13 10.00 Fair CLR 83.5 72.7 83.7 74.1 70% 89 30 0.0
14 12:35 S 10 10.00 Fair CLR 82.4 73 73% 88 30.01 0.0
14 12:15 S 8 10.00 Fair CLR 81.1 72.5 75% 86 30.01 0.0
14 11:55 S 5 10.00 Fair CLR 79.3 70.7 75% 82 30.03 0.0
14 11:35 Calm 10.00 Partly Cloudy SCT110 77.9 70.5 78% 80 30.05 0.0
14 11:15 N 7 10.00 Partly Cloudy SCT033 SCT039 SCT120 76.8 70.9 82% 78 30.06 0.0
14 10:55 N 10 7.00 Light Rain BKN029 BKN035 OVC060 76.1 71.1 84% 77 30.08 0.0
14 10:35 NW 21 G 30 10.00 Overcast and Breezy SCT024 BKN030 OVC038 79.5 72 78% 83 30.1 0.0
14 10:15 W 7 10.00 Overcast SCT033 BKN070 OVC085 80.6 74.5 82% 86 30.08 0.0
14 09:55 W 9 10.00 Partly Cloudy SCT085 80.8 74.1 80% 86 30.06 0.0
14 09:35 SW 10 G 20 10.00 Fair CLR 81 74.5 81% 86 30.05 0.0
14 09:15 SW 8 10.00 Fair CLR 80.8 74.7 82% 86 30.05 0.0
14 08:55 SW 13 10.00 Fair CLR 79.7 75.4 87% 84 30.04 0.0
14 08:35 SW 12 10.00 Fair CLR 78.8 75 88% 82 30.04 0.0
14 08:15 SW 10 G 17 10.00 Fair CLR 77.9 74.7 90% 80 30.05 0.0
14 07:55 SW 9 10.00 Fair CLR 77.2 74.5 91% 79 30.05 0.0
14 07:35 SW 10 10.00 Fair CLR 76.6 74.3 93% 77 30.06 0.0
14 07:15 SW 6 10.00 Fair CLR 76.1 74.1 94% 76 30.06 0.0
14 06:55 SW 6 5.00 Fog/Mist CLR 73.9 73.4 77 72.5 98% 30.06 0.0
14 06:35 E 3 5.00 Fog/Mist CLR 72.9 72.5 99% 30.06 0.0
14 06:15 S 3 4.00 Fog/Mist CLR 72.5 72 98% 30.06 0.0
14 05:55 Calm 7.00 Fair CLR 72.7 72.1 98% 30.05 0.0
14 05:35 S 5 7.00 Fair CLR 73 72.5 98% 30.04 0.0
14 05:15 SW 5 10.00 Fair CLR 73.4 72.7 98% 30.04 0.0
14 04:55 SW 6 10.00 Fair CLR 73.6 72.9 98% 30.04 0.0
14 04:35 SW 6 10.00 Fair CLR 73.6 72.9 98% 30.03 0.0
14 04:15 SW 6 10.00 Fair CLR 73.4 72.7 98% 30.03 0.0
14 03:55 SW 3 7.00 Fair CLR 73.2 72.7 98% 30.05 0.0
14 03:35 SW 5 10.00 Fair CLR 73.4 72.9 98% 30.06 0.0
14 03:15 SW 6 10.00 Fair CLR 74.3 73.4 97% 30.06 0.0
14 02:55 SW 6 10.00 Partly Cloudy SCT120 74.5 73.6 97% 30.06 0.0
14 02:35 SW 7 10.00 Mostly Cloudy BKN120 75.2 73.9 96% 73 30.07 0.0
14 02:15 SW 7 10.00 Partly Cloudy SCT120 75.7 73.9 94% 75 30.08 0.0
14 01:55 SW 8 10.00 Partly Cloudy SCT120 76.1 73.9 93% 76 30.08 0.0
14 01:35 SW 6 10.00 Partly Cloudy SCT120 76.8 73.8 90% 78 30.07 0.0
14 01:15 SW 8 10.00 Fair CLR 76.8 73.9 91% 78 30.07 0.0
14 00:55 S 6 10.00 Fair CLR 76.1 74.3 83.8 75.6 94% 76 30.09 0.0
14 00:35 S 6 10.00 Fair CLR 76.1 74.8 96% 76 30.09 0.0
14 00:15 S 7 10.00 Fair CLR 76.1 75 96% 76 30.1 0.0
13 23:55 S 8 10.00 Fair CLR 75.6 74.7 97% 74 30.1 0.0
13 23:35 S 7 10.00 Fair CLR 76.3 74.8 95% 76 30.1 0.0
13 23:15 S 7 10.00 Fair CLR 75.7 74.7 96% 75 30.1 0.0
13 22:55 S 7 10.00 Fair CLR 76.5 74.8 95% 77 30.1 0.0
13 22:35 S 6 10.00 Fair CLR 76.8 75.2 95% 77 30.1 0.0
13 22:15 S 5 10.00 Fair CLR 77 75.2 94% 78 30.1 0.0
13 21:55 S 6 10.00 Fair CLR 77 75.4 95% 78 30.1 0.0
13 21:35 S 6 10.00 Fair CLR 77 75.6 95% 78 30.09 0.0
13 21:15 S 6 10.00 Fair CLR 77.4 75.7 95% 79 30.08 0.0
13 20:55 S 5 10.00 Fair CLR 78.1 76.1 94% 81 30.08 0.0
13 20:35 S 5 10.00 Fair CLR 79.7 76.1 89% 85 30.08 0.0
13 20:15 S 6 10.00 Fair CLR 80.8 76.1 86% 87 30.08 0.0
13 19:35 S 6 10.00 Fair CLR 82.2 75.2 79% 89 30.09 0.0
13 19:15 S 8 10.00 Fair CLR 83.3 74.8 76% 91 30.09 0.0
13 18:55 S 8 10.00 Partly Cloudy SCT041 SCT050 83.8 75 87.6 83.5 75% 92 30.09 0.0
13 18:35 S 7 10.00 Fair CLR 83.5 75.2 76% 91 30.1 0.0
13 18:15 S 7 10.00 Fair CLR 84.4 74.5 72% 92 30.1 0.0
13 17:55 S 7 10.00 Fair CLR 85.1 74.5 71% 93 30.1 0.0
13 17:35 S 8 10.00 Partly Cloudy SCT042 86.2 73.9 67% 94 30.11 0.0
13 17:15 S 9 10.00 Fair CLR 87.1 72.7 62% 94 30.11 0.0
13 16:55 S 5 10.00 Partly Cloudy SCT042 87.3 71.8 60% 94 30.11 0.0
13 16:35 S 8 10.00 Partly Cloudy SCT040 87.3 72.1 61% 94 30.11 0.0
13 16:15 SW 9 10.00 Partly Cloudy SCT040 86.9 72.1 62% 94 30.12 0.0
13 15:55 SW 9 10.00 Fair CLR 86.9 72.1 62% 94 30.12 0.0
13 15:35 S 9 10.00 Partly Cloudy SCT039 86.4 72.3 63% 93 30.13 0.0
13 15:15 SW 12 10.00 Mostly Cloudy BKN039 BKN045 86.4 73.6 66% 94 30.14 0.0
13 14:55 SW 9 10.00 Partly Cloudy SCT037 SCT045 85.6 72.7 65% 92 30.14 0.0
13 14:35 SW 12 10.00 Partly Cloudy SCT037 86.7 72.3 62% 93 30.14 0.0
13 14:15 SW 12 10.00 Fair CLR 85.8 72.1 64% 92 30.14 0.0
13 13:55 SW 12 10.00 Fair CLR 85.6 72 64% 92 30.14 0.0
13 13:35 S 9 10.00 Fair CLR 85.8 71.4 62% 92 30.15 0.0
13 13:15 SW 9 10.00 Fair CLR 86 72 63% 92 30.16 0.0
13 12:55 S 9 10.00 Fair CLR 85.5 70.2 85.5 69.6 60% 90 30.16 0.0
13 12:35 SW 7 10.00 Fair CLR 85.1 69.6 60% 89 30.17 0.0
13 12:15 S 6 10.00 Fair CLR 84.7 70.9 63% 90 30.18 0.0
13 11:55 SW 7 10.00 Fair CLR 84.6 70.9 64% 90 30.18 0.0
13 11:35 SW 9 10.00 Fair CLR 84.7 69.3 60% 89 30.18 0.0
13 11:15 SW 7 10.00 Fair CLR 84.6 70.5 63% 89 30.18 0.0
13 10:55 SW 9 10.00 Fair CLR 83.7 68.7 61% 87 30.18 0.0
13 10:35 SW 7 10.00 Fair CLR 83.1 69.6 64% 87 30.18 0.0
13 10:15 S 6 10.00 Fair CLR 82.2 71.4 70% 87 30.17 0.0
13 09:55 S 6 10.00 Fair CLR 81 71.4 73% 85 30.17 0.0
13 09:35 S 6 10.00 Fair CLR 79.7 73.8 82% 84 30.17 0.0
13 09:15 S 3 10.00 Fair CLR 78.3 73.8 86% 81 30.18 0.0
13 08:55 S 5 10.00 Fair CLR 77.2 73.6 89% 79 30.19 0.0
13 08:35 S 5 10.00 Fair CLR 76.3 72.7 89% 77 30.19 0.0
13 08:15 S 6 10.00 Fair CLR 75.2 71.8 89% 75 30.19 0.0
13 07:55 S 3 10.00 Fair CLR 73.6 70.9 91% 30.19 0.0
13 07:35 S 3 10.00 Fair CLR 71.8 69.8 94% 30.19 0.0
13 07:15 S 3 7.00 Fair CLR 70.7 69.3 95% 30.19 0.0
13 06:55 S 3 5.00 Fog/Mist CLR 69.4 68.5 70.3 67.5 97% 30.18 0.0
13 06:35 SE 3 5.00 Fog/Mist CLR 68.9 68.4 98% 30.18 0.0
13 06:15 Calm 5.00 Fog/Mist CLR 68.5 68 98% 30.18 0.0
13 05:55 Calm 5.00 Fog/Mist SCT037 68.5 68 98% 30.17 0.0
13 05:35 SE 3 5.00 Fog/Mist BKN037 68.5 68 98% 30.17 0.0
13 05:15 Calm 7.00 Partly Cloudy SCT037 SCT090 68.2 67.6 98% 30.17 0.0
13 04:55 Calm 5.00 Fog/Mist SCT090 68 67.6 99% 30.16 0.0
13 04:35 Calm 7.00 Partly Cloudy SCT042 68.2 67.8 99% 30.15 0.0
13 04:15 Calm 7.00 Mostly Cloudy BKN042 68 67.5 98% 30.16 0.0
13 03:55 Calm 7.00 Fair CLR 68.4 67.8 98% 30.15 0.0
13 03:35 Calm 10.00 Fair CLR 68 67.3 98% 30.15 0.0
13 03:15 Calm 10.00 Fair CLR 68.5 67.5 96% 30.14 0.0
13 02:55 Calm 10.00 Fair CLR 68.2 67.5 98% 30.15 0.0
13 02:35 Calm 10.00 Fair CLR 68.9 68 97% 30.14 0.0
13 02:15 Calm 10.00 Fair CLR 69.6 68.4 96% 30.14 0.0
13 01:55 Calm 10.00 Fair CLR 70 68.2 94% 30.14 0.0
13 01:35 Calm 10.00 Fair CLR 69.1 68.7 99% 30.15 0.0
13 01:15 Calm 10.00 Fair CLR 69.1 68.5 98% 30.15 0.0
13 00:55 Calm 10.00 Fair CLR 69.4 68.9 81.5 69.3 98% 30.15 0.0
13 00:35 Calm 10.00 Fair CLR 70.7 69.4 96% 30.15 0.0
13 00:15 Calm 10.00 Fair CLR 71.1 69.8 96% 30.16 0.0
12 23:55 Calm 10.00 Fair CLR 71.6 69.8 94% 30.16 0.0
12 23:35 Calm 10.00 Fair CLR 72.5 70.2 92% 30.15 0.0
12 23:15 Calm 10.00 Fair CLR 71.6 69.8 94% 30.15 0.0
12 22:55 Calm 10.00 Fair CLR 72.7 69.8 91% 30.14 0.0
12 22:35 Calm 10.00 Fair CLR 73.6 69.6 87% 30.14 0.0
12 22:15 Calm 10.00 Fair CLR 73.8 69.6 87% 30.14 0.0
12 21:55 Calm 10.00 Fair CLR 75 69.4 83% 75 30.14 0.0
12 21:35 Calm 10.00 Fair CLR 75.9 70 82% 77 30.13 0.0
12 21:15 Calm 10.00 Fair CLR 76.3 70.3 82% 77 30.13 0.0
12 20:55 Calm 10.00 Fair CLR 76.5 70.5 82% 78 30.12 0.0
12 20:35 Calm 10.00 Fair CLR 77.4 71.1 81% 79 30.12 0.0
12 20:15 Calm 10.00 Fair CLR 78.8 71.2 78% 82 30.12 0.0
12 19:55 Calm 10.00 Fair CLR 79.3 71.2 76% 83 30.12 0.0
12 19:35 Calm 10.00 Fair CLR 80.1 70.9 74% 84 30.12 0.0
12 19:15 Calm 10.00 Fair CLR 81.1 70.9 71% 85 30.12 0.0
12 18:55 Calm 10.00 Fair CLR 81.5 70.3 84.4 79.9 69% 85 30.11 0.0
12 18:35 Calm 10.00 Fair CLR 81.5 69.8 68% 85 30.11 0.0
12 18:15 S 3 10.00 Fair CLR 82.2 68.5 63% 85 30.1 0.0
12 17:55 Calm 10.00 Partly Cloudy SCT038 82.6 67.1 60% 85 30.09 0.0
12 17:35 Calm 10.00 Partly Cloudy SCT038 82.8 66.9 59% 85 30.09 0.0
12 17:15 Calm 10.00 Partly Cloudy SCT042 SCT070 83.5 67.3 58% 86 30.09 0.0
12 16:55 Calm 10.00 Overcast BKN042 OVC065 82.9 66.7 58% 85 30.1 0.0
12 16:35 S 3 10.00 Overcast BKN040 OVC055 82.6 67.3 60% 85 30.11 0.0
12 16:15 Calm 10.00 Overcast OVC040 83.5 66.2 56% 86 30.11 0.0
12 15:55 Calm 10.00 Partly Cloudy SCT038 82.4 67.1 60% 85 30.11 0.0
12 15:35 Calm 10.00 Partly Cloudy SCT038 83.1 68 60% 86 30.11 0.0
12 15:15 Calm 10.00 Partly Cloudy SCT040 SCT048 81.9 66 59% 84 30.11 0.0
12 14:55 Calm 10.00 Mostly Cloudy SCT040 SCT048 BKN060 81.7 66 59% 84 30.11 0.0
12 14:35 Calm 10.00 Overcast SCT038 OVC050 82.4 67.6 61% 85 30.11 0.0
12 14:15 Calm 10.00 Mostly Cloudy SCT038 BKN060 80.6 66.4 62% 83 30.12 0.0
12 13:55 Calm 10.00 Fair CLR 84 66.6 56% 86 30.12 0.0
12 13:35 Calm 10.00 Partly Cloudy SCT044 SCT055 83.3 66.6 57% 86 30.12 0.0
12 13:15 Calm 10.00 Overcast SCT033 BKN044 OVC055 83.3 66.9 58% 86 30.13 0.0
12 12:55 Calm 10.00 Overcast OVC031 79.7 66.9 82.2 66.7 65% 82 30.13 0.0
12 12:35 Calm 10.00 Mostly Cloudy BKN033 BKN040 80.1 66.7 64% 82 30.14 0.0
12 12:15 E 3 10.00 Partly Cloudy SCT039 81.7 67.5 62% 84 30.14 0.0
12 11:55 SE 5 10.00 Partly Cloudy SCT035 82 67.8 62% 85 30.14 0.0
12 11:35 Calm 10.00 Partly Cloudy SCT024 81.1 68.2 65% 84 30.14 0.0
12 11:15 Calm 10.00 Partly Cloudy SCT022 SCT026 79.9 68.2 68% 82 30.14 0.0
12 10:55 Calm 10.00 Fair CLR 79.7 68.9 70% 82 30.14 0.0
12 10:35 Calm 10.00 Partly Cloudy SCT018 78.1 68.4 72% 80 30.14 0.0
12 10:15 Calm 10.00 Partly Cloudy SCT016 75.9 69.8 81% 77 30.14 0.0
12 09:55 Calm 10.00 Fair CLR 76.6 69.1 78% 78 30.14 0.0
12 09:35 Calm 10.00 Fair CLR 76.1 69.3 79% 77 30.14 0.0
12 09:15 Calm 10.00 Fair CLR 75 69.4 83% 75 30.14 0.0
12 08:55 Calm 10.00 Fair CLR 73.9 69.3 85% 30.14 0.0
12 08:35 NE 3 10.00 Fair CLR 72.7 68.7 87% 30.13 0.0
12 08:15 E 3 10.00 Fair CLR 72.1 68.9 90% 30.13 0.0
12 07:55 E 3 10.00 Fair CLR 70.3 68.9 95% 30.13 0.0
12 07:35 Calm 7.00 Partly Cloudy SCT001 68.7 68.2 98% 30.12 0.0
12 07:15 Calm 3.00 Fog/Mist BKN001 67.1 66.7 99% 30.12 0.0
12 06:55 E 3 3.00 Fog/Mist BKN001 67.1 66.7 69.8 65.5 99% 30.11 0.0
12 06:35 Calm 0.25 Fog OVC001 66.2 65.8 99% 30.11 0.0
12 06:15 Calm 0.25 Fog OVC001 66.2 65.8 99% 30.1 0.0
12 05:55 Calm 2.50 Fog/Mist OVC001 65.8 65.5 99% 30.1 0.0
12 05:35 Calm 1.75 Fog/Mist OVC003 65.8 65.5 99% 30.09 0.0
12 05:15 Calm 0.25 Fog OVC003 66.4 66.2 99% 30.08 0.0
12 04:55 Calm 3.00 Fog/Mist BKN003 66.7 66.4 99% 30.07 0.0
12 04:35 NE 3 5.00 Fog/Mist SCT003 66.4 65.8 98% 30.07 0.0
12 04:15 Calm 10.00 Fair CLR 67.1 66.4 98% 30.07 0.0
12 03:55 Calm 10.00 Fair CLR 67.1 66.4 98% 30.07 0.0
12 03:35 Calm 10.00 Fair CLR 67.5 66.7 98% 30.07 0.0
12 03:15 Calm 10.00 Fair CLR 68 67.1 97% 30.06 0.0
12 02:55 Calm 10.00 Fair CLR 68.2 67.3 97% 30.07 0.0
12 02:35 Calm 10.00 Fair CLR 68.7 67.5 96% 30.07 0.0
12 02:15 Calm 10.00 Fair CLR 68.9 67.8 96% 30.07 0.0
12 01:55 Calm 10.00 Fair CLR 69.3 67.6 95% 30.07 0.0
12 01:35 Calm 10.00 Fair CLR 69.3 68.2 96% 30.07 0.0
12 01:15 NE 3 10.00 Fair CLR 69.4 68.4 96% 30.08 0.0
12 00:55 NE 3 10.00 Fair CLR 69.8 68.5 75.4 69.1 96% 30.08 0.0
12 00:35 N 5 10.00 Fair CLR 69.8 68.4 95% 30.08 0.0
12 00:15 Calm 10.00 Fair CLR 69.8 68.4 95% 30.08 0.0
11 23:55 NW 3 10.00 Fair CLR 69.1 68.2 97% 30.08 0.0
11 23:35 NW 5 10.00 Fair CLR 69.4 68.5 97% 30.09 0.0
11 23:15 NW 6 10.00 Light Rain SCT055 70 68.5 95% 30.09 0.0
11 22:55 W 5 10.00 Partly Cloudy SCT055 70.3 68.4 93% 30.09 0.0
11 22:35 Calm 10.00 Fair CLR 70.9 68.2 91% 30.09 0.0
11 22:15 E 3 10.00 Mostly Cloudy BKN120 71.1 69.3 94% 30.08 0.0
11 21:55 E 6 10.00 Partly Cloudy SCT120 71.6 68.4 90% 30.08 0.0
11 21:35 E 6 10.00 Fair CLR 71.8 68.9 91% 30.07 0.0
Date Time (cdt) Wind (mph) Vis. (mi.) Weather Sky Cond. Air Dwpt Max. Min. Relative Humidity Wind Chill (°F) Heat Index (°F) altimeter (in) sea level (mb) 1 hr 3 hr 6 hr
6 hour
Temperature (ºF) Pressure Precipitation (in)